Weather History for Hilton Head Island, SC

Change the Weather History Date:

Wednesday, November 6, 2013

  Actual Average Record
Temperature  
Mean Temperature 65 °F -  
Max Temperature 71 °F 70 °F 84 °F (1986)
Min Temperature 59 °F 48 °F 28 °F (1976)
Growing Degree Days 15 (Base 50)    
Moisture  
Dew Point 61 °F    
Average Humidity 89    
Maximum Humidity 94    
Minimum Humidity 73    
Precipitation  
Precipitation 0.00 in - - ()
Sea Level Pressure  
Sea Level Pressure 30.21 in    
Wind  
Wind Speed 8 mph (North)    
Max Wind Speed 13 mph    
Max Gust Speed -    
Visibility 9 miles    
Events Rain    
Averages and records for this station are not official NWS values.
T = Trace of Precipitation, MM = Missing Value Source: NWS Daily Summary

Daily Weather History Graph

Daily Weather History Graph

Search for Another Location

Airport:

Trip Planner

Search our weather history database for the weather conditions in past years. The results will help you decide how hot, cold, wet, or windy it might be!

Date:

Astronomy

Nov. 06, 2013 Rise Set
Actual Time 6:44 AM EST 5:28 PM EST
Civil Twilight 6:18 AM EST 5:53 PM EST
Nautical Twilight 5:49 AM EST 6:22 PM EST
Astronomical Twilight 5:20 AM EST 6:51 PM EST
Moon 9:53 AM EST (11/6) 8:35 PM EST (11/6)
Length of Visible Light 11h 35m
Length of Day
10h 44m
Waxing Crescent, 13% of the Moon is Illuminated
Nov 6
Waxing Crescent
Nov 10
First Quarter
Nov 17
Full
Nov 25
Last Quarter
Dec 2
New

Hourly Weather History & Observations

Time (EST) Temp. Dew Point Humidity Pressure Visibility Wind Dir Wind Speed Gust Speed Precip Events Conditions
12:15 AM 59.0 °F 57.2 °F 94% 30.31 in 10.0 mi North 9.2 mph - 0.00 in   Mostly Cloudy
12:35 AM 59.0 °F 57.2 °F 94% 30.30 in 10.0 mi North 8.1 mph - 0.00 in   Overcast
1:35 AM 60.8 °F 57.2 °F 88% 30.29 in 10.0 mi North 10.4 mph - 0.00 in   Overcast
1:55 AM 60.8 °F 57.2 °F 88% 30.28 in 10.0 mi North 9.2 mph - 0.00 in   Overcast
2:15 AM 60.8 °F 57.2 °F 88% 30.27 in 10.0 mi North 11.5 mph - 0.00 in   Overcast
2:35 AM 59.0 °F 57.2 °F 94% 30.27 in 10.0 mi North 12.7 mph - 0.00 in   Overcast
2:55 AM 59.0 °F 57.2 °F 94% 30.26 in 10.0 mi North 10.4 mph - 0.00 in   Overcast
3:15 AM 59.0 °F 57.2 °F 94% 30.26 in 10.0 mi North 8.1 mph - 0.00 in   Overcast
3:35 AM 60.8 °F 57.2 °F 88% 30.25 in 10.0 mi North 10.4 mph - 0.00 in   Mostly Cloudy
3:55 AM 59.0 °F 57.2 °F 94% 30.25 in 10.0 mi North 9.2 mph - 0.00 in   Mostly Cloudy
4:15 AM 59.0 °F 57.2 °F 94% 30.25 in 10.0 mi North 10.4 mph - 0.00 in   Overcast
4:35 AM 59.0 °F 57.2 °F 94% 30.25 in 10.0 mi North 10.4 mph - 0.00 in   Overcast
4:55 AM 59.0 °F 57.2 °F 94% 30.25 in 9.0 mi North 9.2 mph - 0.00 in   Mostly Cloudy
5:15 AM 59.0 °F 57.2 °F 94% 30.25 in 10.0 mi North 8.1 mph - 0.00 in   Mostly Cloudy
5:35 AM 60.8 °F 57.2 °F 88% 30.25 in 10.0 mi North 9.2 mph - 0.00 in   Mostly Cloudy
6:50 AM 60.8 °F 57.2 °F 88% 30.26 in 10.0 mi North 6.9 mph - N/A   Overcast
8:50 AM 60.8 °F 57.2 °F 88% 30.28 in 2.0 mi NNE 9.2 mph - N/A Rain Rain
9:50 AM 60.8 °F 59.0 °F 94% 30.28 in 5.0 mi NNE 9.2 mph - N/A Rain Light Rain
10:50 AM 64.4 °F 60.8 °F 88% 30.27 in - NNE 9.2 mph - N/A   Overcast
11:10 AM 64.4 °F 60.8 °F 88% 30.27 in 2.0 mi NNE 5.8 mph - N/A Rain Rain
11:50 AM 64.4 °F 60.8 °F 88% 30.24 in - North 11.5 mph - N/A   Mostly Cloudy
12:50 PM 68.0 °F 62.6 °F 83% 30.21 in - North 11.5 mph - N/A   Mostly Cloudy
1:50 PM 71.6 °F 62.6 °F 73% 30.18 in - NNE 10.4 mph - N/A   Clear
2:50 PM 71.6 °F 62.6 °F 73% 30.17 in - NNE 5.8 mph - N/A   Clear
3:50 PM 71.6 °F 64.4 °F 78% 30.16 in - ENE 5.8 mph - N/A   Clear
4:50 PM 68.0 °F 62.6 °F 83% 30.16 in - NNE 5.8 mph - N/A   Clear
5:50 PM 68.0 °F 62.6 °F 83% 30.16 in - NE 9.2 mph - N/A   Clear
6:50 PM 68.0 °F 64.4 °F 88% 30.16 in - NNE 3.5 mph - N/A   Mostly Cloudy
8:15 PM 68.0 °F 66.2 °F 94% 30.15 in 10.0 mi North 4.6 mph - 0.00 in   Clear
8:35 PM 68.0 °F 64.4 °F 88% 30.14 in 10.0 mi North 5.8 mph - 0.00 in   Clear
8:55 PM 68.0 °F 64.4 °F 88% 30.14 in 10.0 mi North 3.5 mph - 0.00 in   Clear
9:15 PM 68.0 °F 64.4 °F 88% 30.14 in 10.0 mi North 3.5 mph - 0.00 in   Clear
9:35 PM 68.0 °F 64.4 °F 88% 30.14 in 10.0 mi North 3.5 mph - 0.00 in   Mostly Cloudy
9:55 PM 68.0 °F 64.4 °F 88% 30.13 in 10.0 mi North 4.6 mph - 0.00 in   Mostly Cloudy
10:15 PM 68.0 °F 64.4 °F 88% 30.12 in 10.0 mi North 4.6 mph - 0.00 in   Partly Cloudy
10:35 PM 68.0 °F 64.4 °F 88% 30.12 in 10.0 mi North 3.5 mph - 0.00 in   Partly Cloudy
10:55 PM 68.0 °F 64.4 °F 88% 30.12 in 10.0 mi North 3.5 mph - 0.00 in   Mostly Cloudy
11:15 PM 68.0 °F 64.4 °F 88% 30.11 in 10.0 mi North 3.5 mph - 0.00 in   Mostly Cloudy
11:35 PM 66.2 °F 64.4 °F 94% 30.10 in 10.0 mi North 3.5 mph - 0.00 in   Partly Cloudy
11:55 PM 66.2 °F 64.4 °F 94% 30.10 in 10.0 mi Calm Calm - 0.00 in   Partly Cloudy